Volver al catálogo

METEOR 1-22

ActivoMeteoPO
NORAD 8293·PAYLOAD·🇷🇺 Russia

Lanzado Sep 18, 1975 desde Plesetsk Cosmodrome

Loading…

Próximos Pases (próximas 24 horas)

TLE

ActualizadoSource: Space-Track

Época: Sep 14, 2026, 10:37 UTC

1 08293U 75087A   26257.44291482  .00000002  00000-0 -58844-5 0  9992
2 08293  81.2524 258.1531 0075818  73.8021 287.1477 14.12941235625675

Sigue METEOR 1-22 en tiempo real con AllMySat

Download on the App Store